Sedalia, MO

6:30 PM CDT on August 28, 2016 (GMT -0500)
Sedalia Memorial

Weather History for KDMO - January, 2014

Change the Weather History Date:

Monday, January 27, 2014

  Actual Average Record
Temperature  
Mean Temperature 15 °F 32 °F  
Max Temperature 22 °F 41 °F 69 °F (1968)
Min Temperature 7 °F 24 °F -8 °F (1963)
Degree Days  
Heating Degree Days 50 33  
Month to date heating degree days 1023 908  
Since 1 July heating degree days 2997 2689  
Cooling Degree Days 0 0  
Month to date cooling degree days 0 0  
Year to date cooling degree days 0 0  
Moisture  
Dew Point -6 °F    
Average Humidity 48    
Maximum Humidity 63    
Minimum Humidity 33    
Precipitation  
Precipitation 0.00 in 0.06 in 0.66 in (1967)
Month to date precipitation 0.22 1.43  
Year to date precipitation 0.22 1.43  
Sea Level Pressure  
Sea Level Pressure 30.46 in    
Wind  
Wind Speed 13 mph (NNW)    
Max Wind Speed 30 mph    
Max Gust Speed 35 mph    
Visibility 10 miles    
Events      
T = Trace of Precipitation, MM = Missing Value Source: NWS Daily Summary

Daily Weather History Graph

Daily Weather History Graph

Search for Another Location

Airport or City:

Trip Planner

Search our weather history database for the weather conditions in past years. The results will help you decide how hot, cold, wet, or windy it might be!

Date:

Astronomy

Jan. 27, 2014 Rise Set
Actual Time 7:22 AM CST 5:28 PM CST
Civil Twilight 6:54 AM CST 5:57 PM CST
Nautical Twilight 6:22 AM CST 6:29 PM CST
Astronomical Twilight 5:50 AM CST 7:00 PM CST
Moon 4:03 AM CST (1/27) 2:15 PM CST (1/27)
Length of Visible Light 11h 02m
Length of Day
10h 06m
Waning Crescent, 14% of the Moon is Illuminated
Jan 27
Waning Crescent
Jan 30
New
Feb 6
First Quarter
Feb 14
Full
Feb 22
Last Quarter

Hourly Weather History & Observations

Time (CST) Temp. Windchill Dew Point Humidity Pressure Visibility Wind Dir Wind Speed Gust Speed Precip Events Conditions
12:53 AM 19.0 °F 2.0 °F -2.0 °F 40% 30.22 in 10.0 mi North 23.0 mph 34.5 mph N/A   Overcast
1:53 AM 18.0 °F 0.9 °F -2.0 °F 41% 30.26 in 10.0 mi NNW 21.9 mph 33.4 mph N/A   Overcast
2:53 AM 15.1 °F -3.7 °F -6.0 °F 39% 30.32 in 10.0 mi NNW 24.2 mph 32.2 mph N/A   Mostly Cloudy
3:53 AM 12.9 °F -6.1 °F -5.1 °F 45% 30.35 in 10.0 mi North 23.0 mph - N/A   Mostly Cloudy
4:53 AM 12.0 °F -4.5 °F -6.0 °F 44% 30.37 in 10.0 mi North 16.1 mph - N/A   Clear
5:53 AM 10.9 °F -5.4 °F -4.0 °F 51% 30.39 in 10.0 mi North 15.0 mph - N/A   Clear
6:53 AM 8.1 °F -9.0 °F -4.0 °F 58% 30.43 in 10.0 mi North 15.0 mph - N/A   Clear
7:53 AM 8.1 °F -6.2 °F -2.9 °F 61% 30.45 in 10.0 mi NNW 10.4 mph - N/A   Clear
8:53 AM 10.0 °F -5.9 °F -7.1 °F 46% 30.47 in 10.0 mi NNW 13.8 mph - N/A   Clear
9:53 AM 10.0 °F -7.6 °F -9.0 °F 42% 30.50 in 10.0 mi NNW 17.3 mph 26.5 mph N/A   Clear
10:53 AM 12.0 °F -3.4 °F -8.0 °F 41% 30.51 in 10.0 mi NW 13.8 mph - N/A   Clear
11:53 AM 12.9 °F -2.8 °F -8.0 °F 39% 30.50 in 10.0 mi NNW 15.0 mph - N/A   Clear
12:53 PM 16.0 °F 1.1 °F -8.0 °F 34% 30.49 in 10.0 mi NNW 15.0 mph 21.9 mph N/A   Clear
1:53 PM 17.1 °F 5.8 °F -7.1 °F 34% 30.47 in 10.0 mi NW 9.2 mph 23.0 mph N/A   Clear
2:53 PM 17.1 °F 2.0 °F -8.0 °F 33% 30.47 in 10.0 mi NNW 16.1 mph 21.9 mph N/A   Clear
3:53 PM 17.1 °F 2.5 °F -8.0 °F 33% 30.48 in 10.0 mi North 15.0 mph 20.7 mph N/A   Clear
4:53 PM 14.0 °F -0.8 °F -8.0 °F 37% 30.50 in 10.0 mi NNW 13.8 mph - N/A   Clear
5:53 PM 12.9 °F 1.6 °F -8.0 °F 39% 30.51 in 10.0 mi NNW 8.1 mph - N/A   Clear
6:53 PM 12.0 °F -1.3 °F -7.1 °F 42% 30.53 in 10.0 mi NNW 10.4 mph - N/A   Clear
7:53 PM 10.0 °F -0.9 °F -5.1 °F 51% 30.53 in 10.0 mi NNW 6.9 mph - N/A   Clear
8:53 PM 9.0 °F -0.9 °F -4.0 °F 56% 30.54 in 10.0 mi North 5.8 mph - N/A   Clear
9:53 PM 9.0 °F 0.6 °F -5.1 °F 53% 30.55 in 10.0 mi NNE 4.6 mph - N/A   Clear
10:53 PM 7.0 °F -1.7 °F -5.1 °F 58% 30.55 in 10.0 mi North 4.6 mph - N/A   Clear
11:53 PM 8.1 °F 1.4 °F -4.0 °F 58% 30.57 in 10.0 mi North 3.5 mph - N/A   Clear